Regional Weather Roundup
Issued by NWS San Diego, CA

Home | Current Version | Previous Version | Text Only | Print | Product List | Glossary On
Versions: 1 2 3 4 5 6 7 8 9 10 11 12 13 14 15 16 17 18 19 20 21 22 23 24 25 26 27 28 29 30 31 32 33 34 35 36 37 38 39 40 41 42 43 44 45 46 47 48 49 50
000
ASUS46 KSGX 010011
RWRSGX

SAN DIEGO HOURLY WEATHER ROUNDUP
NATIONAL WEATHER SERVICE SAN DIEGO CA
500 PM PDT FRI JUL 31 2015

NOTE: "FAIR" INDICATES FEW OR NO CLOUDS BELOW 12,000 FEET WITH NO
SIGNIFICANT WEATHER AND/OR OBSTRUCTIONS TO VISIBILITY.

CAZ042-043-060-061-PZZ750-775-010100-

GREATER SAN DIEGO AREA

CITY           SKY/WX    TMP DP  RH WIND       PRES   REMARKS
LINDBERGH FLD  PTSUNNY   75  63  66 NW10      29.97F
POINT LOMA       N/A     76  64  67 NW15        N/A
NATIONAL CITY    N/A     75  67  75 NW3       29.96F
CHULA VISTA      N/A     76  69  78 W12       29.89F
IMPERIAL BEACH PTSUNNY   77  64  64 W13       29.97S
BROWN FIELD    PTSUNNY   75  65  70 W8        29.97S
MIRAMAR MCAS   PTSUNNY   79  63  57 W7        29.96F
MONTGOMERY FLD PTSUNNY   78  64  61 W8        29.96F

$$

NORTH SAN DIEGO COUNTY

CITY           SKY/WX    TMP DP  RH WIND       PRES   REMARKS
CAMP PENDLETON PTSUNNY   78  64  61 SW8       29.95S
OCEANSIDE AP   PTSUNNY   75  65  70 SW10      29.95S
OCEANSIDE HBR    N/A     72  68  88 W9        29.98F
VISTA            N/A     77  67  71 SW3       29.94S
CARLSBAD       PTSUNNY   73  66  78 W6        29.96S
DEL MAR          N/A     75  68  78 CALM      29.98F
FALLBROOK        N/A     80  67  64 S6        29.94S
ESCONDIDO        N/A     82  67  59 W6        29.96F
POWAY            N/A     84  67  56 W2        29.95S

$$

EAST SAN DIEGO COUNTY

CITY           SKY/WX    TMP DP  RH WIND       PRES   REMARKS
RAMONA         PTSUNNY   85  64  49 NW12      29.98F
SANTEE LAKES     N/A     82  66  57 W12       29.93F
LA MESA          N/A     81  67  61 W6        29.88S
JAMUL            N/A     85  69  58 W10       29.92F
DESCANSO N       N/A     84  58  41 NW1       29.82F
CAMPO            N/A     90  50  25 W10       30.00F

$$

ORANGE COUNTY AND THE LOS ANGELES BASIN

CITY           SKY/WX    TMP DP  RH WIND       PRES   REMARKS
JOHN WAYNE AP  PTSUNNY   78  66  66 SW9       29.95S
LAKE FOREST FR   N/A     86  63  46 W3        29.84S
SANTA ANA        N/A     85  69  57 CALM      29.89F
HUNTINGTON BCH   N/A     77  70  78 W8        29.96F
LOS ALAMITOS   MOSUNNY   83  68  59 SW12      29.93F
FULLERTON      MOSUNNY   87  66  49 VRB7      29.92F
LONG BEACH     SUNNY     84  65  52 NW13      29.94S
L.A. AP        MOSUNNY   75  65  70 W15       29.96F
L.A. DOWNTOWN  SUNNY     78  65  63 VRB3      29.94F

$$

THE INLAND EMPIRE

CITY           SKY/WX    TMP DP  RH WIND       PRES   REMARKS
CORONA         PTSUNNY   90  63  40 W14       29.93S
CHINO          PTSUNNY   94  61  33 W15       29.94F
ONTARIO        PTSUNNY   92  61  35 W12       29.94F
SAN BERNARDINO PTSUNNY   93  57  29 W8        29.95F
RIVERSIDE AP   CLOUDY    93  62  35 W12G17    29.93F
MORENO VALLEY    N/A     90  67  47 S5        29.95S
MARCH ARB      CLOUDY    92  63  36 N8        29.97F
HORSETHIEF CYN   N/A     92  59  32 NW9       29.94S
PERRIS           N/A     91  64  39 NW6       29.96R
MENIFEE          N/A     96  56  26 SW5       30.00F
HEMET EAST       N/A     91  42  17 SW1       29.96R
FRENCH VALLEY  FAIR      90  61  37 SW10      29.97F
TEMECULA         N/A     91  62  38 W5        29.90F

$$

SAN BERNARDINO AND RIVERSIDE COUNTY MOUNTAINS

CITY           SKY/WX    TMP DP  RH WIND       PRES   REMARKS
BIG BEAR AP    CLOUDY    72  55  56 W7        30.32F
ANGELUS OAKS     N/A     75  60  60 CALM      29.88S
PINE COVE        N/A     71  53  52 W1        29.96S

$$

SOUTHERN DESERT INCLUDING THE COACHELLA VALLEY

CITY           SKY/WX    TMP DP  RH WIND       PRES   REMARKS
PALM SPRINGS   CLOUDY   105  58  21 NW20      29.83F HX 105
THOUSAND PALMS   N/A    104  60  23 NW13      29.79F HX 104
THERMAL        PTSUNNY  109  47  12 S6        29.75F HX 105
BLYTHE         PTSUNNY  107  59  20 SE8       29.78F HX 108
IMPERIAL AP    SUNNY    110  39   9 W15       29.76F HX 104
EL CENTRO NAS  PTSUNNY  111  29   6 W16       29.78F HX 103
YUMA AZ        CLOUDY   108  56  18 VRB3      29.78F HX 107
MEXICALI       PTSUNNY  109  43  10 NW5       29.78F HX 104

$$

UPPER DESERT

CITY           SKY/WX    TMP DP  RH WIND       PRES   REMARKS
VICTORVILLE AP CLOUDY    93  39  15 S18       30.02F
HESPERIA         N/A     86  56  35 W15       29.99S
APPLE VALLEY     N/A     88  50  27 SW17      30.04F
PALMDALE       MOSUNNY   93  58  30 SW22      29.99F
LANCASTER      MOSUNNY   94  57  28 SW24G31   29.98F
EDWARDS AFB    PTSUNNY   99  57  24 SW22G30   29.93F HX  98
DAGGETT        CLOUDY   100  54  21 SW13G21   29.91F HX  98
29 PALMS N     PTSUNNY  100  55  22 E7        29.99F HX  98
NEEDLES        MOSUNNY  108  46  12 S5        29.82F HX 104

$$

REGIONAL REPORTS

CITY           SKY/WX    TMP DP  RH WIND       PRES   REMARKS
SANTA BARBARA  SUNNY     76  63  64 SW9       29.96F
SANDBERG       SUNNY     86  54  33 S22G31    30.17F
LAS VEGAS NV   MOSUNNY  104  52  17 N15G22    29.87F HX 101
PHOENIX AZ     TSTM      88  72  58 W8        29.91R
TIJUANA        PTSUNNY   75  63  64 W13       29.99S
ENSENADA NW      N/A     72  32  23 NW14      29.93F

$$

OFFSHORE ISLANDS

CITY           SKY/WX    TMP DP  RH WIND       PRES   REMARKS
CATALINA ARPT  SUNNY     72  61  68 SW12      30.02F
SAN NICOLAS IS FAIR     N/A N/A N/A W16       29.98F

$$

MARINE AND OFFSHORE BUOY REPORTS

STATION/POSITION SKY/WX   TEMP    WIND        PRES    SWELL
                          AIR SEA DIR/SP/G            HT/PER/DIR
                          (F)     (DEG/KT/KT) (MB)    (FT/S/D)
TANNER BANKS               68 69  300/ 12/ 14 1015.5F   3/230/14
S CLEMENTE BASIN           68 70  280/ 14/ 16 1014.6F   3/300/14
SAN NICOLAS IS.               67                N/A     3/210/13
SO. S. ROSA ISLA           66 69  300/ 14/ 16 1014.7F   3/14
W. S. BARBARA CH           64 67  310/ 16/ 19 1014.6F   3/300/10
M. S. BARBARA CH           68 70  250/ 10/ 12 1015.6F
S. MONICA BASIN            69 74  270/ 10/ 12 1014.6F   2/230/14
S PEDRO CHANNEL               72                N/A     2/200/13
DANA POINT                    73                N/A     2/200/17
OCEANSIDE OFFSHR              74                N/A     2/210/17
TORREY PINES OTR              74                N/A     3/230/14
LA JOLLA 1                 71 71  320/  7/  8 1014.8F
MISSION BAY BUOY              73                N/A     2/210/14
SAN DIEGO BAY                 76              1015.2F
POINT LOMA SOUTH              72                N/A     3/210/14

$$




USA.gov is the U.S. government's official web portal to all federal, state and local government web resources and services.